Temp
19 20 21 24 25 25 25 25 26 27 28 25 24 25 27 26 25 24 23 23 22 22 20 17 15 16 17 17 17 16 15 15 15 14 14 13 13 13 13 13 12 15 13 12
20 19 23 24 24 24 23 23 24 26 26 23 24 24 26 27 25 24 23 23 22 22 20 16 14 16 16 16 15 15 15 14 14 14 13 13 13 12 13 13 14 14 12 12
21 23 23 23 22 21 22 23 24 24 25 23 23 24 25 26 24 22 22 22 21 21 19 15 13 14 13 14 14 14 14 14 13 13 13 13 13 13 13 14 13 12 12 10
21 23 22 22 21 22 22 24 23 22 22 22 25 23 26 24 23 23 22 22 21 20 18 15 13 12 13 13 13 13 14 13 13 13 13 14 13 14 13 12 11 11 11 10
20 20 20 20 21 22 21 22 21 22 22 22 24 23 25 26 23 23 22 21 20 19 18 16 14 12 13 14 14 13 14 13 13 13 12 11 11 12 12 10 9 10 10 10
21 21 21 21 22 21 21 20 21 21 21 20 22 23 24 26 25 24 22 21 19 19 18 16 14 13 12 12 12 13 13 12 11 12 12 12 12 12 11 10 9 9 8 9
18 19 20 20 20 20 20 20 19 19 20 20 24 24 24 24 25 24 22 20 19 18 18 17 16 15 13 12 11 11 12 13 13 13 12 12 12 12 12 10 11 10 10 9
18 18 20 19 20 20 20 21 21 20 20 22 24 21 23 25 24 23 21 20 19 18 18 18 17 16 14 13 13 13 14 13 13 12 12 12 12 12 12 11 12 11 11 10
20 20 23 21 20 21 20 20 22 21 21 18 22 23 22 22 22 22 20 19 18 18 18 17 17 16 15 15 14 14 14 14 13 13 12 12 11 11 12 11 10 10 10 9
20 19 20 20 20 20 21 21 18 19 17 18 21 22 23 21 20 21 20 19 19 18 17 17 16 16 16 15 14 14 14 14 14 13 12 12 11 11 11 10 10 10 9 9
19 19 17 20 17 19 19 19 19 20 19 19 20 22 25 21 21 20 20 19 19 18 18 17 17 16 15 15 14 13 13 13 13 12 12 11 11 10 10 10 9 9 8 8
19 17 17 18 20 20 20 19 19 18 18 19 20 21 23 23 22 21 20 19 19 18 18 17 17 16 15 15 14 14 13 13 12 12 11 10 10 10 9 9 8 8 9 8
18 16 15 16 17 19 19 19 20 20 19 19 18 20 23 22 23 21 21 20 19 18 18 17 17 16 16 15 15 14 13 13 12 11 10 9 9 9 9 8 8 8 7 7
18 18 18 17 18 19 17 19 20 19 17 18 20 21 22 20 21 22 21 20 19 19 18 17 17 16 16 15 14 13 13 12 11 10 10 9 9 8 8 7 7 7 6 6
18 16 18 19 21 19 20 19 20 20 20 18 19 20 22 22 21 21 21 20 20 19 18 17 17 16 16 15 13 12 12 10 9 9 9 8 7 7 6 7 7 7 7 6
17 15 15 16 18 19 18 20 20 20 20 20 20 20 22 22 22 22 20 20 19 18 17 17 16 16 15 13 12 11 9 8 8 8 7 6 6 6 6 7 6 6 6 5
14 14 13 14 16 16 14 17 19 20 20 20 19 20 22 22 22 21 20 19 19 18 17 17 16 15 12 11 10 9 8 7 7 7 6 5 5 5 5 6 6 6 5 4
12 12 13 12 14 10 16 19 19 19 19 20 20 21 21 21 21 20 20 19 18 17 17 16 14 12 10 8 8 7 7 6 6 5 5 6 6 6 6 6 5 5 5 4
12 13 8 9 9 15 17 19 18 18 18 20 19 20 20 20 20 19 19 18 17 17 16 13 11 9 8 6 7 7 7 7 7 7 6 6 6 6 6 5 4 4 3 2
13 12 11 8 9 11 15 18 19 18 15 19 19 19 19 19 18 18 17 16 14 13 12 10 8 7 6 6 7 7 7 7 7 6 6 6 5 5 5 4 3 2 1 -0
7 6 8 8 9 13 17 16 16 13 16 17 17 18 18 17 17 15 13 11 10 10 9 8 7 6 6 7 7 7 7 6 6 5 5 4 4 4 3 2 2 1 -1 -2
8 7 8 8 8 9 16 15 14 15 14 14 14 15 15 15 12 11 10 9 9 9 8 6 6 6 7 7 7 7 6 6 5 4 4 4 3 2 1 1 0 -1 -2 -3
10 11 11 11 12 14 14 16 14 12 14 12 13 12 12 12 11 10 9 8 7 7 7 7 6 5 6 7 6 6 6 5 5 4 3 3 2 1 0 -1 -1 -2 -4 -4
13 14 12 13 13 13 13 11 12 11 12 11 11 11 10 10 8 8 8 8 7 7 8 7 6 5 5 4 4 4 4 5 4 3 3 2 1 -1 -3 -2 -3 -4 -5 -5
12 13 11 12 13 12 11 10 10 10 10 10 10 10 9 8 7 7 7 7 6 6 7 7 7 7 6 5 4 3 4 4 3 3 2 1 -1 -3 -3 -4 -5 -5 -5 -6
12 11 10 11 12 10 10 9 8 8 9 9 9 8 8 8 8 8 8 8 7 6 6 6 6 6 6 5 3 2 4 3 2 1 0 -1 -2 -3 -4 -4 -4 -5 -5 -5
Height
1511 1510 1501 1494 1493 1491 1492 1494 1490 1482 1481 1492 1498 1489 1482 1485 1489 1492 1495 1497 1498 1500 1501 1500 1497 1498 1499 1498 1499 1503 1506 1507 1509 1512 1515 1519 1522 1525 1526 1528 1529 1530 1532 1534
1507 1502 1490 1491 1491 1494 1496 1496 1491 1485 1483 1494 1494 1486 1478 1480 1484 1488 1492 1494 1495 1496 1499 1498 1495 1494 1494 1495 1498 1501 1503 1505 1508 1511 1515 1519 1523 1525 1527 1527 1528 1526 1529 1532
1491 1484 1486 1488 1495 1497 1493 1492 1489 1489 1485 1491 1490 1485 1472 1473 1484 1490 1492 1493 1494 1496 1498 1498 1495 1494 1494 1495 1497 1499 1502 1506 1509 1511 1514 1517 1520 1523 1525 1527 1526 1526 1527 1529
1488 1480 1486 1486 1492 1491 1490 1481 1489 1492 1493 1494 1472 1490 1465 1471 1482 1486 1489 1489 1492 1495 1497 1497 1496 1496 1495 1496 1497 1499 1501 1504 1509 1513 1514 1517 1519 1521 1522 1525 1527 1527 1527 1527
1481 1482 1486 1486 1485 1484 1488 1486 1493 1491 1491 1488 1479 1487 1467 1460 1474 1479 1485 1488 1492 1494 1496 1497 1497 1496 1496 1496 1497 1499 1502 1506 1510 1514 1516 1519 1522 1522 1522 1525 1525 1527 1527 1528
1473 1478 1480 1480 1481 1483 1487 1493 1492 1491 1490 1496 1481 1480 1467 1453 1460 1469 1481 1488 1492 1493 1495 1497 1497 1497 1496 1498 1498 1500 1502 1506 1510 1514 1517 1519 1520 1522 1524 1524 1525 1527 1529 1528
1477 1476 1479 1480 1483 1487 1487 1491 1498 1500 1495 1490 1463 1466 1464 1456 1457 1464 1479 1486 1490 1493 1495 1496 1497 1499 1499 1499 1500 1503 1507 1512 1515 1516 1517 1518 1519 1521 1523 1523 1525 1525 1526 1526
1471 1475 1469 1474 1473 1475 1478 1479 1480 1492 1486 1472 1455 1474 1459 1450 1458 1465 1476 1484 1488 1490 1493 1495 1497 1499 1499 1501 1504 1507 1510 1513 1514 1515 1517 1519 1519 1519 1521 1522 1523 1524 1525 1526
1450 1453 1445 1459 1470 1468 1471 1476 1471 1476 1473 1492 1459 1453 1458 1458 1463 1467 1475 1481 1485 1488 1490 1492 1495 1497 1499 1501 1504 1506 1508 1511 1513 1514 1515 1516 1515 1516 1517 1519 1519 1521 1521 1521
1443 1452 1449 1454 1464 1465 1462 1466 1485 1477 1496 1493 1461 1452 1447 1454 1462 1467 1472 1477 1480 1484 1487 1490 1494 1496 1497 1499 1501 1503 1505 1508 1509 1510 1512 1512 1513 1514 1514 1515 1515 1515 1516 1515
1442 1444 1460 1450 1459 1457 1464 1465 1467 1467 1469 1473 1467 1445 1426 1442 1450 1459 1466 1472 1475 1479 1483 1486 1489 1493 1495 1496 1498 1499 1500 1503 1505 1506 1508 1509 1509 1510 1511 1512 1512 1513 1514 1516
1435 1446 1452 1449 1448 1449 1449 1457 1460 1466 1469 1461 1461 1444 1437 1439 1446 1454 1460 1466 1470 1475 1479 1483 1486 1489 1492 1493 1494 1496 1498 1500 1502 1503 1504 1504 1506 1507 1508 1510 1511 1510 1510 1509
1431 1440 1452 1451 1455 1448 1447 1450 1450 1454 1455 1453 1465 1446 1431 1441 1443 1449 1455 1460 1466 1471 1475 1478 1481 1484 1487 1490 1492 1493 1495 1497 1499 1499 1500 1501 1502 1503 1504 1505 1506 1505 1507 1507
1425 1423 1426 1435 1434 1434 1447 1442 1442 1446 1456 1453 1436 1441 1434 1444 1443 1446 1450 1455 1460 1465 1470 1474 1476 1479 1482 1485 1488 1488 1490 1492 1494 1494 1495 1497 1497 1498 1498 1500 1501 1502 1503 1504
1421 1424 1421 1419 1416 1424 1425 1436 1434 1433 1433 1449 1433 1436 1429 1433 1437 1441 1444 1449 1453 1459 1464 1467 1470 1474 1477 1480 1484 1484 1484 1486 1487 1489 1491 1493 1494 1494 1495 1495 1496 1497 1497 1498
1417 1427 1427 1429 1424 1422 1430 1421 1426 1429 1429 1428 1427 1424 1425 1428 1430 1432 1438 1443 1447 1453 1457 1461 1465 1468 1472 1476 1480 1481 1480 1481 1482 1486 1488 1489 1490 1491 1492 1492 1492 1493 1493 1494
1422 1425 1433 1432 1425 1432 1442 1422 1422 1421 1420 1425 1428 1418 1422 1423 1426 1429 1435 1441 1444 1446 1452 1456 1461 1464 1470 1473 1474 1475 1477 1478 1479 1482 1484 1484 1486 1488 1487 1488 1487 1485 1486 1488
1423 1427 1434 1435 1432 1451 1412 1413 1416 1420 1417 1418 1418 1415 1418 1420 1422 1424 1426 1432 1436 1442 1446 1451 1456 1462 1468 1471 1470 1470 1472 1474 1475 1478 1479 1480 1482 1483 1483 1482 1483 1483 1481 1480
1422 1425 1442 1441 1446 1421 1411 1404 1407 1413 1410 1410 1415 1413 1414 1416 1419 1419 1425 1428 1432 1436 1443 1448 1456 1462 1467 1466 1464 1467 1469 1470 1472 1474 1475 1476 1477 1478 1479 1480 1478 1477 1476 1476
1414 1420 1426 1442 1438 1433 1406 1405 1404 1413 1415 1409 1411 1410 1413 1415 1416 1414 1423 1425 1429 1435 1441 1449 1456 1460 1463 1462 1463 1465 1466 1467 1468 1470 1471 1472 1472 1473 1473 1474 1473 1473 1472 1474
1422 1428 1424 1428 1432 1412 1396 1404 1409 1422 1409 1403 1406 1405 1410 1413 1416 1418 1423 1427 1430 1437 1442 1447 1452 1457 1457 1458 1460 1462 1463 1465 1466 1467 1468 1468 1468 1469 1469 1470 1470 1468 1469 1469
1403 1414 1417 1422 1426 1417 1398 1406 1409 1403 1403 1407 1410 1411 1415 1416 1418 1423 1427 1429 1434 1437 1442 1446 1449 1449 1451 1454 1456 1458 1460 1461 1462 1464 1464 1465 1466 1465 1466 1466 1466 1466 1468 1467
1391 1384 1391 1396 1392 1390 1394 1394 1399 1405 1406 1411 1412 1414 1415 1418 1423 1427 1429 1430 1435 1440 1443 1447 1448 1448 1449 1451 1452 1453 1454 1457 1459 1460 1460 1462 1462 1463 1463 1463 1463 1465 1465 1465
1375 1378 1380 1384 1384 1390 1393 1397 1400 1406 1408 1411 1412 1413 1417 1419 1423 1427 1429 1430 1435 1439 1442 1444 1445 1445 1447 1449 1450 1453 1450 1453 1455 1455 1457 1457 1459 1459 1459 1460 1463 1464 1463 1461
1364 1371 1375 1380 1385 1392 1395 1399 1401 1405 1409 1412 1413 1415 1418 1421 1424 1427 1428 1430 1433 1437 1439 1441 1443 1445 1447 1448 1448 1449 1447 1448 1451 1452 1453 1453 1455 1456 1455 1458 1462 1462 1459 1459
1365 1371 1377 1376 1382 1389 1391 1397 1402 1406 1408 1411 1413 1416 1418 1421 1423 1425 1427 1430 1432 1434 1436 1438 1440 1441 1443 1445 1445 1445 1444 1446 1447 1449 1449 1451 1452 1451 1455 1456 1458 1459 1457 1457
Wind_Speed
19 10 14 19 16 17 14 14 16 16 11 5 15 19 14 11 11 12 8 5 4 3 2 5 5 7 7 14 15 10 14 16 17 19 19 15 15 13 10 8 7 8 12 16
10 19 17 15 8 13 13 15 16 16 15 6 16 19 15 11 11 8 9 8 5 4 4 5 5 5 8 11 11 10 11 12 17 17 16 16 15 14 10 8 5 9 11 12
18 8 21 14 13 13 14 16 16 16 6 13 18 19 24 11 8 10 9 6 6 5 6 6 7 9 11 11 11 10 9 10 15 16 18 19 16 11 9 8 13 9 10 11
16 15 11 14 17 12 16 13 12 15 11 11 2 12 5 15 13 13 12 11 9 8 8 8 9 10 12 12 12 12 11 13 18 15 14 13 10 10 11 10 8 10 9 11
12 13 14 17 16 14 11 4 8 12 14 15 18 9 16 18 17 15 14 13 10 9 10 10 11 11 13 14 13 14 14 16 16 15 12 11 8 8 7 6 9 11 10 9
19 7 13 15 11 11 3 7 8 9 10 14 17 16 12 15 15 15 15 14 12 11 11 11 12 12 13 13 17 21 21 20 15 12 9 9 9 9 8 9 8 7 6 6
18 19 12 12 13 12 13 11 6 8 10 12 12 13 16 7 6 18 17 17 14 14 14 14 14 14 14 18 18 17 15 13 12 11 10 10 9 8 7 8 7 8 8 7
17 14 24 17 20 13 21 19 9 12 12 14 10 8 11 1 13 18 20 18 17 17 15 15 15 16 16 16 16 15 14 13 11 10 9 9 9 7 8 8 9 8 7 7
17 17 14 16 22 21 18 21 18 18 8 6 10 9 8 7 12 18 21 21 20 19 18 17 17 16 17 17 16 16 14 11 10 9 10 10 11 11 10 10 9 8 9 9
18 14 11 19 16 23 25 13 14 11 11 18 13 19 15 18 17 18 20 23 22 21 20 18 18 18 17 17 16 14 13 12 11 11 12 11 11 11 11 11 11 12 12 14
20 16 9 19 16 19 17 17 14 14 14 9 15 14 11 20 20 21 22 26 25 23 22 20 19 18 18 18 16 15 14 14 15 14 13 13 13 13 13 12 11 11 10 9
27 11 14 19 18 19 21 19 21 10 19 19 15 17 6 4 16 22 25 27 25 24 23 21 20 20 19 19 18 15 14 14 15 14 14 15 14 13 11 10 9 10 11 13
23 7 10 10 9 11 19 21 21 21 11 19 12 6 5 5 11 21 24 24 25 26 24 23 22 21 20 19 17 15 14 14 14 14 14 14 14 13 11 10 11 12 11 11
26 15 19 13 14 13 23 22 26 22 17 17 22 17 13 10 12 14 20 22 27 27 26 26 24 22 20 19 17 15 12 12 12 12 14 14 14 13 12 12 11 10 10 11
18 13 20 18 14 5 14 23 25 28 28 19 26 25 22 16 17 19 21 24 25 25 29 31 27 24 21 18 15 11 11 11 12 12 13 14 13 11 11 12 12 13 15 13
14 7 8 15 16 14 15 19 23 23 27 27 28 30 21 21 22 19 20 22 25 28 30 28 27 25 17 13 13 11 11 10 10 11 11 11 9 9 11 12 12 14 15 15
10 7 6 9 14 14 13 24 22 22 22 23 23 27 21 20 19 24 18 21 26 28 29 26 24 18 15 15 14 11 10 9 9 10 10 9 9 9 12 13 14 15 16 17
5 7 6 8 4 6 18 19 22 27 26 24 24 26 24 23 26 29 23 24 26 26 26 22 16 14 15 13 12 13 12 12 11 11 10 11 13 13 14 15 16 17 18 19
21 17 4 5 6 12 17 18 17 15 22 23 25 26 30 30 26 28 20 20 23 21 19 15 14 15 14 12 11 12 11 8 8 8 10 11 12 13 15 16 16 16 17 16
15 12 8 4 6 13 19 21 17 8 17 15 18 20 20 21 14 14 18 10 10 9 15 16 17 16 15 13 11 8 7 6 6 6 8 10 12 13 14 15 14 14 14 15
5 4 10 7 7 9 9 8 12 12 6 3 8 14 17 12 13 2 4 10 14 15 16 17 17 18 17 11 8 7 5 4 4 5 8 10 11 13 14 14 12 12 12 12
13 10 6 7 5 7 15 13 13 3 4 1 2 5 8 10 6 6 8 12 14 18 19 20 19 17 14 11 9 6 6 6 6 7 8 10 13 14 15 13 11 10 11 10
10 12 10 11 8 6 4 18 10 3 5 3 4 3 3 8 7 6 9 12 18 16 15 15 12 12 13 14 11 9 9 7 7 8 8 10 13 15 15 14 11 10 10 9
10 16 9 9 11 6 12 5 9 6 6 6 7 7 7 9 10 12 13 12 17 14 14 13 13 12 12 12 10 8 12 8 8 8 9 11 12 12 12 11 9 9 8 8
5 12 10 11 4 8 12 10 11 10 9 9 7 7 7 8 8 9 9 10 12 13 12 12 12 14 14 13 12 11 14 9 9 10 11 11 11 10 9 10 11 12 11 9
6 8 11 8 12 11 14 14 11 11 10 8 8 7 6 6 7 7 9 11 12 11 10 12 14 15 14 14 13 12 14 10 10 11 11 12 11 10 11 12 14 14 11 10
Wind_Direction
203 214 216 226 225 260 297 277 277 282 272 283 266 265 262 252 241 235 232 228 210 205 127 50 44 78 123 153 187 195 211 214 213 209 199 199 187 194 191 221 230 265 256 246
182 230 228 235 262 238 244 258 264 270 268 296 266 267 260 236 225 220 214 201 194 158 110 67 69 115 136 170 185 185 195 202 201 206 200 186 186 181 203 199 232 256 231 248
207 228 213 230 218 228 238 255 265 270 248 228 258 272 247 212 186 198 201 182 152 134 122 99 95 109 117 131 149 164 178 191 197 188 186 187 185 203 205 214 257 237 232 216
232 242 205 203 226 220 252 248 255 267 255 263 88 268 152 150 185 196 185 172 150 135 119 113 108 107 117 119 128 139 152 174 176 179 194 178 196 206 210 238 233 198 191 195
207 221 202 216 222 227 258 296 248 253 252 262 257 244 271 171 186 193 184 169 153 140 127 120 118 114 115 111 117 128 136 147 157 165 169 170 192 203 219 188 208 218 217 228
229 198 209 230 235 229 235 221 233 246 252 250 250 254 249 207 205 169 171 172 159 148 135 128 127 124 124 123 127 132 140 149 154 160 172 170 162 164 174 183 186 202 215 215
214 230 216 226 196 201 196 200 215 230 221 243 260 230 233 106 173 162 172 169 161 154 148 144 139 134 133 135 139 139 141 147 152 160 165 171 174 171 177 182 184 195 199 208
210 212 206 196 213 194 201 203 217 224 246 261 198 227 243 309 153 160 172 169 164 162 159 153 149 148 146 145 147 147 152 160 169 171 178 188 186 192 195 203 207 208 217 226
206 225 199 200 213 222 195 224 235 267 261 271 256 195 180 162 159 167 171 176 176 172 171 165 161 159 155 155 159 158 162 172 179 189 198 206 207 202 208 210 209 221 222 224
238 232 193 180 202 226 237 203 219 229 238 237 244 248 261 172 177 184 188 187 184 181 179 175 174 173 170 169 167 169 176 188 199 206 215 215 217 217 217 218 224 223 227 241
220 223 191 196 203 198 203 220 219 221 227 236 251 257 330 164 192 195 198 198 192 188 187 186 189 189 186 182 185 186 192 198 209 216 217 218 217 217 223 232 231 230 232 237
202 208 191 206 200 227 206 208 210 213 218 232 260 263 117 194 190 196 200 199 199 197 197 196 199 199 198 197 198 203 208 219 227 229 230 225 222 223 228 228 228 229 244 249
186 220 180 198 182 212 225 214 219 220 241 243 222 234 90 177 183 197 205 202 206 204 203 204 204 203 204 207 209 214 224 234 239 233 231 226 221 218 214 211 220 240 240 243
188 198 199 194 201 201 210 220 215 215 225 238 243 251 210 196 207 211 211 213 210 210 210 213 209 208 212 214 219 223 229 229 232 227 225 224 217 210 206 212 225 233 245 250
198 225 207 209 229 233 197 217 223 222 225 225 246 247 249 225 210 221 220 222 219 218 217 218 215 218 218 218 228 224 213 218 215 214 211 211 207 206 215 228 238 247 258 259
214 198 215 225 244 243 245 223 221 230 236 239 248 254 259 265 270 265 223 224 221 219 220 222 220 222 220 220 220 206 198 201 199 201 201 202 205 211 234 246 251 260 268 271
187 206 173 235 229 245 251 233 235 237 233 235 241 254 265 261 256 254 227 240 231 226 227 223 224 211 216 211 196 185 186 189 181 191 194 200 220 231 245 256 261 263 270 269
199 229 210 248 130 214 245 234 228 241 249 250 253 256 261 269 275 277 256 238 238 238 232 225 205 200 200 193 171 184 189 187 186 192 207 230 241 249 262 268 271 274 279 281
205 206 164 171 198 264 279 248 229 236 248 243 246 255 261 261 266 265 259 253 250 232 217 196 196 191 188 178 180 188 194 201 214 232 244 253 260 266 270 270 273 277 282 284
207 232 205 146 211 226 245 240 251 215 253 250 257 263 270 268 262 257 269 240 196 178 176 168 178 175 178 182 189 199 205 212 225 241 253 255 257 260 262 269 278 283 284 281
184 167 196 189 229 243 245 133 136 193 250 9 295 265 254 266 272 0 134 154 157 158 165 180 182 183 193 194 201 197 195 219 246 261 261 260 259 260 265 273 279 283 275 276
177 176 196 199 230 234 237 164 212 307 47 22 272 263 253 245 100 130 151 153 165 168 172 178 179 187 197 200 197 211 227 240 258 271 272 271 263 257 256 262 269 271 266 262
190 196 190 198 212 208 256 224 235 277 257 194 204 159 195 197 170 171 172 175 179 179 185 188 189 183 201 208 213 221 224 243 265 273 275 269 265 255 253 257 259 253 259 253
221 205 215 198 217 219 216 186 184 187 179 156 145 129 139 160 182 193 191 198 193 188 198 202 200 203 208 206 204 201 246 249 264 274 281 282 275 268 263 251 246 246 241 228
189 164 204 216 215 172 207 185 171 160 158 150 139 148 152 163 178 194 196 195 197 208 213 219 223 223 222 217 208 197 237 258 263 268 267 268 263 251 246 225 228 235 230 227
177 182 203 211 199 205 192 172 164 163 166 159 152 144 152 183 200 205 214 215 219 224 223 226 229 229 225 219 209 205 248 258 260 260 257 257 261 242 234 230 236 243 242 239